Flag for Canada Weather past 2 weeks in Cumberland County, Nova Scotia, Canada

Now
15 °F

Cold.


Feels Like: 0 °F
Forecast: 2 / 11 °F
Wind: 15 mph from Southwest

Location: Kentville

Current Time: Jan 26, 2015 at 1:02:14 AM

Latest Report: Jan 26, 2015 at 12:00 AM


Visibility: N/A

Pressure: 29.74 "Hg

Humidity: 65%

Dew point: 6 °F

Location of Cumberland CountyLocation

Historic Weather in Cumberland County — Graph

°F

Cumberland County temperature yesterday

Maximum temperature yesterday: 40 °F (at 12:00 AM)
Minimum temperature yesterday: 17 °F (at 11:00 PM)
Average temperature yesterday: 31 °F

Past Weeks' High & Low Weather Summary

 TemperatureHumidityPressure
High50 °F (Jan 19, 10:00 AM)100% (Jan 13, 3:00 AM)30.60 "Hg (Jan 13, 3:00 AM)
Low-1 °F (Jan 14, 4:00 AM)41% (Jan 23, 2:00 PM)28.58 "Hg (Jan 24, 11:00 PM)
Average23 °F81%29.98 "Hg
* Reported Midnight between Jan 10 and Jan 11 — Midnight between Jan 25 and Jan 26, Cumberland County, Weather by CustomWeather, © 2014

Note: Actual official high and low records may vary slightly from our data, if they occured in-between our weather recording intervals... More about our weather records

Advertising

Cumberland County weather history for previous 24 hours

 ConditionsComfort  
Time TempWeatherWind HumidityBarometerVisibility
12:00 AM
Jan 26
15 °FCold.15 mph65%29.74 "HgN/A
11:00 PM
Jan 25
17 °FCold.18 mph65%29.69 "HgN/A
10:00 PM19 °FCold.17 mph71%29.63 "HgN/A
9:00 PM23 °FCold.17 mph60%29.57 "HgN/A
8:00 PM26 °FChilly.17 mph62%29.51 "HgN/A
7:00 PM28 °FChilly.14 mph57%29.46 "HgN/A
6:00 PM29 °FChilly.16 mph58%29.41 "HgN/A
5:00 PM30 °FChilly.13 mph59%29.38 "HgN/A
4:00 PM33 °FChilly.17 mph58%29.34 "HgN/A
3:00 PM34 °FChilly.13 mph78%29.31 "HgN/A
2:00 PM35 °FChilly.10 mph69%29.29 "HgN/A
1:00 PM35 °FChilly.12 mph75%29.28 "HgN/A
12:00 PM34 °FChilly.12 mph82%29.27 "HgN/A
11:00 AM33 °FChilly.12 mph82%29.26 "HgN/A
10:00 AM31 °FChilly.12 mph88%29.23 "HgN/A
9:00 AM32 °FChilly.12 mph90%29.18 "HgN/A
8:00 AM32 °FChilly.15 mph90%29.12 "HgN/A
7:00 AM31 °FChilly.17 mph100%29.05 "HgN/A
6:00 AM33 °FChilly.17 mph95%28.96 "HgN/A
5:00 AM34 °FChilly.15 mph99%28.86 "HgN/A
4:00 AM33 °FChilly.16 mph100%28.73 "HgN/A
3:00 AM34 °FChilly.9 mph100%28.66 "HgN/A
2:00 AM34 °FChilly.10 mph100%28.59 "HgN/A
1:00 AM40 °FChilly.1 mph99%28.59 "HgN/A
Weather by CustomWeather, © 2014

See weather overviewHow to use our weather pages